Location: Bamobli
(6.6379°N, 10.9396°W)
Time: 23:35:58
(UTC+00:00)

N. Korean satellite - Pass Details

Date: 06 March 2021
Orbit: 453 x 499 km, 97.2° (Epoch: 12 April)

Event Time Altitude Azimuth Distance (km) Brightness Sun altitude
Rises 05:48:03 0° 10° (N) 2,546 10.3 -17.2°
Reaches altitude 10° 05:50:06 10° 10° (N) 1,674 9.4 -16.7°
Maximum altitude 05:53:43 88° 284° (WNW) 498 6.5 -15.8°
Drops below altitude 10° 05:57:22 10° 192° (SSW) 1,695 9.2 -14.9°
Sets 05:59:27 0° 191° (SSW) 2,581 10.2 -14.4°
